Current weather by "City, St" or "zip code"  
 

Current Conditions: Buffalo - Johnson County Airport, WY

Fair and Windy


46.0 F

Last Updated on Oct 31 2020, 11:53 am MDT
Humidity: 44%
Wind Speed: N 28.8 G 42.6 mph
Barometer 30.25 in
Dewpoint: 25.0 F
Visibility: 10.00 mi
Precip: --
Heat Index: NA
Wind Chill: 37 F
Current conditions at:

Buffalo - Johnson County Airport, WY (KBYG)

Lat: 44.38122 Lon: 106.71947

Local Radar Image active severe weather and emergency alerts image image weather storm and storm spotter reports image weather observation monitoring service image
Local
Radar
Active
Alerts
Storm Reports Obs
Monitoring

Sign-up For Email & Text Message Weather Alert Notification Services



Advertise Here

Observation History for Buffalo - Johnson County Airport, WY


Time Wind
(mph)
Vis
(mi)
Weather Precip (in) Temperature (F) Relative
Humidity
Wind
Chill
(F)
Heat
Index
(F)
Pressure
Air Dwpt altimeter
(in)
sea level
(mb)
Rmks
11:53 am MDT N 28.8 G 42.6 10.00 Fair and Windy -- 46.0 25.0 44% 37 NA 30.25 1023.7
10:53 am MDT N 26.5 G 43.7 10.00 Partly Cloudy and Windy -- 47.0 25.0 42% 38 NA 30.22 1021.5
9:53 am MDT N 19.6 G 25.3 10.00 Overcast -- 43.0 24.1 47% 35 NA 30.20 1020.4
8:53 am MDT N 12.7 10.00 Mostly Cloudy -- 44.0 24.1 45% 38 NA 30.16 1019.2
7:53 am MDT N 5.8 10.00 Fair -- 38.0 23.0 55% 34 NA 30.11 1018.1
6:53 am MDT NE 5.8 10.00 A Few Clouds -- 38.0 24.1 57% 34 NA 30.07 1016.3
5:53 am MDT N 9.2 10.00 Partly Cloudy -- 39.0 25.0 57% 33 NA 30.03 1014.7
4:53 am MDT N 12.7 10.00 Overcast -- 40.0 25.0 55% 33 NA 29.98 1012.6
3:53 am MDT NW 13.8 G 25.3 10.00 Overcast -- 43.0 25.0 49% 36 NA 29.95 1010.8
2:53 am MDT NW 19.6 G 28.8 10.00 Overcast -- 44.0 26.1 49% 36 NA 29.93 1010.0
1:53 am MDT N 16.1 G 23.0 10.00 Overcast -- 45.0 28.0 52% 38 NA 29.91 1009.2
12:53 am MDT N 15.0 G 25.3 10.00 Partly Cloudy -- 47.0 30.9 54% 41 NA 29.88 1008.2
11:53 pm MDT 3.5 10.00 Fair -- 46.0 28.9 51% NA NA 29.84 1007.8
10:53 pm MDT NW 24.2 G 35.7 10.00 Fair and Breezy -- 54.0 19.9 26% 48 NA 29.80 1006.0
9:53 pm MDT SW 18.4 G 28.8 10.00 Fair -- 60.0 17.1 19% 57 NA 29.72 1002.8
8:53 pm MDT S 10.4 G 26.5 10.00 Fair -- 57.0 19.9 24% 55 NA 29.70 1002.8
7:53 pm MDT 3.5 10.00 Fair -- 57.0 19.0 23% NA NA 29.72 1004.4
6:53 pm MDT W 10.4 G 29.9 10.00 Fair -- 61.0 19.0 20% 60 NA 29.73 1004.7
5:53 pm MDT SW 15.0 10.00 Fair -- 61.0 18.0 19% 59 NA 29.74 1004.6
4:53 pm MDT SW 26.5 G 35.7 10.00 Fair and Windy -- 65.0 16.0 15% NA NA 29.77 1005.0
3:53 pm MDT NW 4.6 10.00 Fair -- 70.0 24.1 18% NA NA 29.77 1004.8
2:53 pm MDT SW 16.1 G 26.5 10.00 Fair -- 70.0 15.1 12% NA NA 29.80 1006.2
1:53 pm MDT 10.00 Fair -- 70.0 24.1 18% NA NA 29.83 1006.4
12:53 pm MDT N 0.0 10.00 Fair -- 66.0 30.9 27% NA NA 29.87 1008.4

Regional Weather Observation


South Big Horn County Airport, WY (KGEY)

Fair
53.0 F

Gillette, Gillette-Campbell County Airport, WY (KGCC)

Overcast and Breezy
47.0 F

Boysen, WY (KTBX)

Fair
36.0 F

Billings, Billings Logan International Airport, MT (KBIL)

A Few Clouds
49.0 F

Cody, WY (KCOD)

Fair
50.0 F

Hulett Municipal Airport, WY (KW43)

NULL
68.0 F